Location: Emporia
(38.4040°N, 96.1810°W)
Time: 15:29:55
(UTC-05:00)

ISS - Visible Passes

Search period start: 28 September 2016 00:00
Search period end: 08 October 2016 00:00
Orbit: 400 x 410 km, 51.6° (Epoch: 29 September)

Date Brightness Start Highest point End Pass type
(mag) Time Alt. Az. Time Alt. Az. Time Alt. Az.
28 Sep -1.7 19:39:23 10° S 19:41:40 18° SE 19:43:57 10° E visible
28 Sep -1.4 21:14:48 10° WSW 21:16:49 30° W 21:16:49 30° W visible
29 Sep -3.4 20:22:32 10° SW 20:25:46 82° NW 20:27:24 27° NE visible
30 Sep -3.0 19:30:35 10° SSW 19:33:43 47° SE 19:36:52 10° ENE visible
30 Sep -1.1 21:07:46 10° W 21:10:21 21° NNW 21:10:29 21° NNW visible
01 Oct -1.8 20:15:04 10° W 20:18:04 34° NNW 20:20:43 12° NNE visible
02 Oct -0.6 21:01:10 10° NW 21:02:53 13° NNW 21:03:30 13° N visible
03 Oct -0.9 20:08:06 10° WNW 20:10:28 18° NNW 20:12:51 10° NNE visible
05 Oct -0.6 20:01:35 10° NW 20:02:57 12° NNW 20:04:20 10° N visible
